Location: Emblem
(62.4273°N, 6.4710°E)
Time: 20:36:22
(UTC+02:00)

Vanguard 2 - Pass Details

Date: 07 February 2023
Orbit: 553 x 2927 km, 32.9° (Epoch: 27 March)

Event Time Altitude Azimuth Distance (km) Brightness Sun altitude
Rises 03:00:57 0° 256° (WSW) 6,446 - -37.5°
Reaches altitude 10° 03:10:37 10° 228° (SW) 5,724 - -36.8°
Maximum altitude 03:14:16 11° 215° (SW) 5,670 - -36.5°
Drops below altitude 10° 03:17:57 10° 203° (SSW) 5,745 - -36.2°
Sets 03:27:50 0° 175° (S) 6,513 - -35.3°
